Wichita Jabara, KS

12:55 AM CDT on October 22, 2017 (GMT -0500)
Col Jabara

Weather History for KAAO - May, 2013

Change the Weather History Date:

Saturday, May 18, 2013

  Actual Average (KIAB) Record (KIAB)
Temperature  
Mean Temperature 73 °F -  
Max Temperature 82 °F 74 °F 89 °F (1997)
Min Temperature 64 °F 55 °F 39 °F (2002)
Cooling Degree Days 8    
Growing Degree Days 23 (Base 50)    
Moisture  
Dew Point 67 °F    
Average Humidity 81    
Maximum Humidity 96    
Minimum Humidity 53    
Precipitation  
Precipitation 0.00 in - - ()
Sea Level Pressure  
Sea Level Pressure 29.78 in    
Wind  
Wind Speed 9 mph (SE)    
Max Wind Speed 20 mph    
Max Gust Speed 25 mph    
Visibility 8 miles    
Events      
Averages and records for this station are not official NWS values.
T = Trace of Precipitation, MM = Missing Value Source: NWS Daily Summary

Daily Weather History Graph

Daily Weather History Graph

Search for Another Location

Airport or City:

Trip Planner

Search our weather history database for the weather conditions in past years. The results will help you decide how hot, cold, wet, or windy it might be!

Date:

Astronomy

May. 18, 2013 Rise Set
Actual Time 6:16 AM CDT 8:34 PM CDT
Civil Twilight 5:46 AM CDT 9:04 PM CDT
Nautical Twilight 5:10 AM CDT 9:40 PM CDT
Astronomical Twilight 4:30 AM CDT 10:21 PM CDT
Moon 1:46 PM CDT (5/18) 2:01 AM CDT (5/18)
Length of Visible Light 15h 17m
Length of Day
14h 18m
First Quarter, 55% of the Moon is Illuminated
May 18
First Quarter
May 24
Full
May 31
Last Quarter
Jun 8
New
Jun 16
First Quarter

Hourly Weather History & Observations

Time (CDT) Temp. Heat Index Dew Point Humidity Pressure Visibility Wind Dir Wind Speed Gust Speed Precip Events Conditions
12:52 AM 68.0 °F - 64.4 °F 88% 29.88 in 10.0 mi ESE 4.6 mph - N/A   Overcast
12:54 AM 68.0 °F - 64.0 °F 87% 29.85 in 10.0 mi ESE 4.6 mph - N/A   Overcast
1:34 AM 66.2 °F - 62.6 °F 88% 29.88 in 10.0 mi East 4.6 mph - N/A   Scattered Clouds
1:54 AM 64.9 °F - 63.0 °F 93% 29.85 in 9.0 mi ESE 3.5 mph - N/A   Clear
2:21 AM 66.2 °F - 62.6 °F 88% 29.88 in 8.0 mi ESE 4.6 mph - N/A   Mostly Cloudy
2:54 AM 66.9 °F - 64.9 °F 93% 29.83 in 9.0 mi ESE 6.9 mph - N/A   Overcast
3:23 AM 69.8 °F - 66.2 °F 88% 29.85 in 9.0 mi SE 9.2 mph - N/A   Overcast
3:54 AM 69.1 °F - 66.0 °F 90% 29.82 in 8.0 mi SE 8.1 mph - N/A   Overcast
4:31 AM 69.8 °F - 66.2 °F 88% 29.85 in 7.0 mi SE 10.4 mph - N/A   Mostly Cloudy
4:49 AM 68.0 °F - 66.2 °F 94% 29.85 in 7.0 mi SE 8.1 mph - N/A   Overcast
4:54 AM 69.1 °F - 66.9 °F 93% 29.81 in 7.0 mi SE 8.1 mph - N/A   Mostly Cloudy
5:54 AM 69.1 °F - 66.9 °F 93% 29.80 in 6.0 mi SE 8.1 mph - N/A   Overcast
6:17 AM 69.8 °F - 66.2 °F 88% 29.83 in 5.0 mi SE 8.1 mph - N/A   Overcast
6:54 AM 69.1 °F - 68.0 °F 96% 29.80 in 4.0 mi SE 10.4 mph - N/A   Overcast
7:54 AM 70.0 °F - 68.0 °F 93% 29.81 in 4.0 mi SSE 11.5 mph - N/A   Overcast
8:54 AM 71.1 °F - 69.1 °F 93% 29.80 in 4.0 mi SE 11.5 mph - N/A   Overcast
9:54 AM 73.0 °F - 70.0 °F 90% 29.79 in 4.0 mi SSE 13.8 mph - N/A   Overcast
10:54 AM 75.0 °F - 71.1 °F 87% 29.79 in 6.0 mi SSE 15.0 mph 20.7 mph N/A   Overcast
11:21 AM 78.8 °F - 71.6 °F 78% 29.82 in 7.0 mi South 12.7 mph - N/A   Overcast
11:54 AM 80.1 °F 83.6 °F 71.1 °F 74% 29.79 in 8.0 mi South 12.7 mph - N/A   Mostly Cloudy
12:25 PM 78.8 °F - 69.8 °F 74% 29.82 in 8.0 mi SSE 12.7 mph - N/A   Scattered Clouds
12:54 PM 79.0 °F - 70.0 °F 74% 29.77 in 8.0 mi SSE 12.7 mph - N/A   Scattered Clouds
1:09 PM 77.0 °F - 69.8 °F 78% 29.80 in 7.0 mi SE 15.0 mph - N/A   Mostly Cloudy
1:22 PM 77.0 °F - 69.8 °F 78% 29.79 in 7.0 mi SE 11.5 mph 19.6 mph N/A   Scattered Clouds
1:31 PM 77.0 °F - 69.8 °F 78% 29.77 in 7.0 mi ESE 11.5 mph - N/A   Mostly Cloudy
1:38 PM 77.0 °F - 69.8 °F 78% 29.77 in 7.0 mi ESE 12.7 mph - N/A   Partly Cloudy
2:54 PM 79.0 °F - 70.0 °F 74% 29.72 in 8.0 mi ESE 9.2 mph - N/A   Clear
3:54 PM 80.1 °F 83.6 °F 71.1 °F 74% 29.72 in 7.0 mi SSE 11.5 mph - N/A   Partly Cloudy
4:54 PM 82.0 °F 86.7 °F 72.0 °F 71% 29.70 in 7.0 mi SE 15.0 mph 23.0 mph N/A   Partly Cloudy
5:54 PM 82.0 °F 86.7 °F 72.0 °F 71% 29.66 in 7.0 mi SE 17.3 mph 25.3 mph N/A   Partly Cloudy
6:54 PM 81.0 °F 85.2 °F 72.0 °F 74% 29.61 in 7.0 mi SE 18.4 mph 23.0 mph N/A   Clear
7:37 PM 80.6 °F 84.6 °F 71.6 °F 74% 29.69 in 7.0 mi SE 13.8 mph 23.0 mph N/A   Mostly Cloudy
7:54 PM 80.1 °F 83.6 °F 71.1 °F 74% 29.65 in 7.0 mi SSE 19.6 mph 24.2 mph N/A   Mostly Cloudy
9:54 PM 79.0 °F - 71.1 °F 77% 29.69 in 9.0 mi SSE 13.8 mph 21.9 mph N/A   Mostly Cloudy
10:38 PM 73.4 °F - 55.4 °F 53% 29.77 in 10.0 mi NW 16.1 mph 24.2 mph N/A   Mostly Cloudy
10:54 PM 71.1 °F - 57.0 °F 61% 29.76 in 10.0 mi NW 6.9 mph - N/A   Overcast
11:03 PM 71.6 °F - 57.2 °F 60% 29.78 in 10.0 mi NNE 10.4 mph - N/A   Overcast
11:54 PM 69.1 °F - 57.9 °F 68% 29.70 in 10.0 mi NE 9.2 mph - N/A   Scattered Clouds